Вернуться в каталог

STARLINK-32211

АктивенСвязьVLEO
NORAD 60270·PAYLOAD·🇺🇸 United States

Запущен Jul 27, 2024 с Cape Canaveral Space Force Station

Loading…

Ближайшие Пролёты (ближайшие 24 часа)

TLE

СвежийSource: CelesTrak SupGP

Эпоха: Sep 15, 2026, 02:11 UTC

1 60270C 24131R   26258.09145833 -.00027415  00000+0 -80980-3 0  2588
2 60270  53.1563 250.6991 0001343  98.1816 311.1891 15.34410941    13

Отслеживайте STARLINK-32211 в реальном времени с AllMySat

Download on the App Store